Home > Weather > Guildford > Past weeks

Flag for United Kingdom Past Weather in Guildford, England, United Kingdom — Yesterday and Last 2 Weeks

Now
63 °F

Scattered clouds.


Feels Like: 63 °F
Forecast: 58 / 70 °F
Wind: 6 mph from Southwest

Location: Farnborough Airport

Current Time: Jul 28, 2016 at 11:29:09 PM

Latest Report: Jul 28, 2016 at 9:20 PM


Visibility: N/A

Pressure: 29.89 "Hg

Humidity: 94%

Dew Point: 61 °F

Location of GuildfordLocation

Past Weather in Guildford — Graph

°F

Guildford Temperature Yesterday

Maximum temperature yesterday: 73 °F (at 4:50 PM)
Minimum temperature yesterday: 63 °F (at 6:50 AM)
Average temperature yesterday: 68 °F

High & Low Weather Summary for the Past Weeks

 TemperatureHumidityPressure
High88 °F (Jul 19, 5:20 PM)100% (Jul 18, 6:50 AM)30.33 "Hg (Jul 18, 6:50 AM)
Low52 °F (Jul 14, 6:50 AM)35% (Jul 18, 4:20 PM)29.74 "Hg (Jul 20, 6:50 AM)
Average69 °F67%30.10 "Hg
* Reported Jul 13 9:20 PM — Jul 28 9:20 PM, Guildford, Weather by CustomWeather, © 2016

Note: Actual official high and low records may vary slightly from our data, if they occured in-between our weather recording intervals... More about our weather records

Advertising

Guildford Weather History for the Previous 24 Hours

Scroll right to see more
 ConditionsComfort  
Time TempWeatherWind HumidityBarometerVisibility
9:20 PM
Thu, Jul 28
63 °FScattered clouds.6 mph94%29.89 "HgN/A
8:50 PM64 °FScattered clouds.8 mph88%29.89 "HgN/A
8:20 PM64 °FScattered clouds.10 mph88%29.89 "HgN/A
7:50 PM66 °FScattered clouds.10 mph83%29.89 "HgN/A
7:20 PM66 °FScattered clouds.9 mph83%29.89 "HgN/A
6:50 PM66 °FScattered clouds.9 mph83%29.89 "HgN/A
6:20 PM66 °FScattered showers. Partly sunny.10 mph83%29.89 "HgN/A
5:50 PM64 °FScattered showers. Partly sunny.8 mph88%29.89 "HgN/A
5:20 PM64 °FDrizzle. Partly sunny.12 mph88%29.92 "HgN/A
4:50 PM64 °FPartly sunny.13 mph88%29.92 "HgN/A
4:20 PM63 °FScattered showers. Partly sunny.13 mph88%29.92 "HgN/A
3:50 PM63 °FScattered showers. Partly sunny.15 mph88%29.92 "HgN/A
3:20 PM63 °FPartly sunny.14 mph88%29.95 "HgN/A
2:50 PM63 °FDrizzle. Partly sunny.10 mph88%29.95 "HgN/A
2:20 PM66 °FScattered clouds.15 mph68%29.95 "HgN/A
1:50 PM66 °FScattered clouds.15 mph64%29.95 "HgN/A
1:20 PM66 °FPartly sunny.14 mph64%29.95 "HgN/A
12:50 PM68 °FPassing clouds.15 mph60%29.95 "HgN/A
12:20 PM66 °FPassing clouds.10 mph64%29.98 "HgN/A
11:50 AM66 °FPassing clouds.13 mph60%29.98 "HgN/A
11:20 AM66 °FPassing clouds.12 mph60%29.98 "HgN/A
10:50 AM64 °FPassing clouds.3 mph64%29.98 "HgN/A
10:20 AM66 °FPassing clouds.3 mph60%29.98 "HgN/A
9:50 AM64 °FPassing clouds.5 mph73%29.98 "HgN/A
9:20 AM63 °FScattered clouds.5 mph68%29.98 "HgN/A
8:50 AM61 °FScattered clouds.5 mph72%29.98 "HgN/A
8:20 AM61 °FScattered clouds.3 mph77%29.98 "HgN/A
7:50 AM59 °FPassing clouds.5 mph77%29.98 "HgN/A
7:20 AM59 °FPassing clouds.5 mph77%29.98 "HgN/A
6:50 AM57 °FPassing clouds.3 mph82%29.98 "HgN/A
Weather by CustomWeather, © 2016

See weather overviewHow to use our weather pages